Colorado Springs, CO

8:12 PM MDT on March 24, 2017 (GMT -0600)
City Of Colorado Springs Municipal

Weather History for KCOS - July, 2013

Change the Weather History Date:

Wednesday, July 31, 2013

  Actual Average Record
Temperature  
Mean Temperature 72 °F 70 °F  
Max Temperature 86 °F 84 °F 96 °F (2002)
Min Temperature 58 °F 57 °F 45 °F (1913)
Degree Days  
Heating Degree Days 0 0  
Month to date heating degree days 5 3  
Since 1 June heating degree days 30 89  
Since 1 July heating degree days 5 10  
Cooling Degree Days 7 6  
Month to date cooling degree days 206 191  
Year to date cooling degree days 410 284  
Since 1 June cooling degree days 388 274  
Growing Degree Days 22 (Base 50)    
Moisture  
Dew Point 50 °F    
Average Humidity 57    
Maximum Humidity 90    
Minimum Humidity 24    
Precipitation  
Precipitation 0.06 in 0.11 in 2.36 in (1999)
Month to date precipitation 4.61 2.84  
Year to date precipitation 7.94 10.45  
Snow  
Snow 0.00 in 0.00 in 0.00 in (2002)
Month to date snowfall 0.0 0.0  
Since 1 June snowfall 0.0 0.0  
Since 1 July snowfall 0.0 0.0  
Snow Depth 0.00 in    
Sea Level Pressure  
Sea Level Pressure 30.14 in    
Wind  
Wind Speed 8 mph (ENE)    
Max Wind Speed 23 mph    
Max Gust Speed 28 mph    
Visibility 10 miles    
Events Rain , Thunderstorm    
T = Trace of Precipitation, MM = Missing Value Source: NWS Daily Summary

Daily Weather History Graph

Daily Weather History Graph

Search for Another Location

Airport or City:

Trip Planner

Search our weather history database for the weather conditions in past years. The results will help you decide how hot, cold, wet, or windy it might be!

Date:

Astronomy

Jul. 31, 2013 Rise Set
Actual Time 5:59 AM MDT 8:10 PM MDT
Civil Twilight 5:29 AM MDT 8:40 PM MDT
Nautical Twilight 4:53 AM MDT 9:16 PM MDT
Astronomical Twilight 4:13 AM MDT 9:55 PM MDT
Moon 12:56 AM MDT (7/31) 3:28 PM MDT (7/31)
Length of Visible Light 15h 10m
Length of Day
14h 11m
Waning Crescent, 31% of the Moon is Illuminated
Jul 31
Waning Crescent
Aug 6
New
Aug 14
First Quarter
Aug 20
Full
Aug 28
Last Quarter

Hourly Weather History & Observations

Time (MDT) Temp. Dew Point Humidity Pressure Visibility Wind Dir Wind Speed Gust Speed Precip Events Conditions
12:54 AM 64.0 °F 51.1 °F 63% 30.12 in 10.0 mi Calm Calm - N/A   Partly Cloudy
1:54 AM 64.0 °F 50.0 °F 60% 30.11 in 10.0 mi NW 4.6 mph - N/A   Clear
2:54 AM 60.1 °F 51.1 °F 72% 30.12 in 10.0 mi North 5.8 mph - N/A   Clear
3:54 AM 60.1 °F 50.0 °F 69% 30.11 in 10.0 mi North 5.8 mph - N/A   Clear
4:54 AM 59.0 °F 48.9 °F 69% 30.12 in 10.0 mi North 8.1 mph - N/A   Clear
5:54 AM 60.1 °F 48.9 °F 67% 30.12 in 10.0 mi North 5.8 mph - N/A   Partly Cloudy
6:54 AM 63.0 °F 48.9 °F 60% 30.14 in 10.0 mi NW 4.6 mph - N/A   Partly Cloudy
7:54 AM 71.1 °F 48.9 °F 45% 30.13 in 10.0 mi North 9.2 mph - N/A   Partly Cloudy
8:54 AM 77.0 °F 51.1 °F 40% 30.13 in 10.0 mi NW 3.5 mph - N/A   Scattered Clouds
9:54 AM 81.0 °F 46.9 °F 30% 30.13 in 10.0 mi Calm Calm - N/A   Scattered Clouds
10:54 AM 82.0 °F 44.1 °F 26% 30.13 in 10.0 mi South 3.5 mph - N/A   Scattered Clouds
11:54 AM 82.0 °F 43.0 °F 25% 30.12 in 10.0 mi Calm Calm - N/A   Scattered Clouds
12:54 PM 84.0 °F 46.0 °F 26% 30.10 in 10.0 mi Variable 6.9 mph - N/A   Mostly Cloudy
1:54 PM 79.0 °F 46.9 °F 32% 30.12 in 10.0 mi North 17.3 mph 25.3 mph N/A   Mostly Cloudy
2:17 PM 73.4 °F 53.6 °F 50% 30.37 in 8.0 mi North 11.5 mph 23.0 mph 0.01 in Rain , Thunderstorm Light Thunderstorms and Rain
2:41 PM 77.0 °F 53.6 °F 44% 30.36 in 10.0 mi NE 12.7 mph - 0.06 in Thunderstorm Thunderstorm
2:54 PM 77.0 °F 54.0 °F 45% 30.11 in 10.0 mi ENE 13.8 mph - 0.06 in Thunderstorm Thunderstorm
3:27 PM 80.6 °F 48.2 °F 32% 30.35 in 10.0 mi SE 10.4 mph 16.1 mph 0.00 in   Scattered Clouds
3:32 PM 80.6 °F 48.2 °F 32% 30.34 in 10.0 mi SE 9.2 mph - 0.00 in Thunderstorm Thunderstorm
3:54 PM 81.0 °F 52.0 °F 36% 30.07 in 10.0 mi SE 18.4 mph - 0.00 in Thunderstorm Thunderstorm
4:02 PM 80.6 °F 51.8 °F 37% 30.32 in 10.0 mi SE 15.0 mph - N/A   Scattered Clouds
4:54 PM 82.0 °F 46.9 °F 29% 30.04 in 10.0 mi ESE 13.8 mph - N/A   Scattered Clouds
5:54 PM 82.0 °F 46.0 °F 28% 30.03 in 10.0 mi ESE 6.9 mph - N/A   Scattered Clouds
6:54 PM 81.0 °F 50.0 °F 34% 30.03 in 10.0 mi Calm Calm - N/A   Scattered Clouds
7:54 PM 73.0 °F 55.9 °F 55% 30.06 in 10.0 mi SSE 19.6 mph 26.5 mph N/A   Scattered Clouds
8:54 PM 69.1 °F 57.0 °F 65% 30.07 in 10.0 mi South 9.2 mph - N/A   Scattered Clouds
9:54 PM 66.9 °F 55.9 °F 68% 30.07 in 10.0 mi South 9.2 mph - N/A   Partly Cloudy
10:54 PM 64.0 °F 57.9 °F 80% 30.10 in 10.0 mi East 11.5 mph - N/A   Partly Cloudy
11:54 PM 61.0 °F 57.0 °F 87% 30.12 in 9.0 mi ENE 8.1 mph - N/A   Scattered Clouds